Home   Weather   Bandar-Abbas   Past weeks

Flag for Iran Past Weather in Bandar-Abbas, Iran — Yesterday and Last 2 Weeks

Now
99 °F

Haze.


Feels Like: 125 °F
Forecast: 87 / 107 °F
Wind: 18 mph from South

Location: Bandarabbass

Current Time: Jun 26, 2017 at 6:28:33 pm

Latest Report: Jun 26, 2017 at 5:30 pm


Visibility: 3 mi

Pressure: 29.42 "Hg

Humidity: 60%

Dew Point: 82 °F

Location of Bandar-AbbasLocation

Past Weather in Bandar-Abbas — Graph

°F

Bandar-Abbas Temperature Yesterday

Maximum temperature yesterday: 109 °F (at 5:30 pm)
Minimum temperature yesterday: 86 °F (at 6:30 am)
Average temperature yesterday: 98 °F

High & Low Weather Summary for the Past Weeks

 TemperatureHumidityPressure
High109 °F (Jun 25, 5:30 pm)94% (Jun 14, 6:30 am)29.65 "Hg (Jun 14, 6:30 am)
Low81 °F (Jun 12, 6:30 am)23% (Jun 21, 3:00 pm)29.33 "Hg (Jun 20, 6:30 pm)
Average94 °F66%29.45 "Hg
* Reported Jun 11 4:30 pm — Jun 26 5:00 pm, Bandar-Abbas. Weather by CustomWeather, © 2017

Note: Actual official high and low records may vary slightly from our data, if they occured in-between our weather recording intervals... More about our weather records

Advertising

Bandar-Abbas Weather History for the Previous 24 Hours

Scroll right to see more
 ConditionsComfort  
Time TempWeatherWind HumidityBarometerVisibility
5:00 pm
Mon, Jun 26
100 °FHaze.18 mph53%29.42 "Hg3 mi
4:30 pm102 °FHaze.18 mph40%29.42 "Hg3 mi
4:00 pm104 °FHaze.21 mph35%29.42 "Hg3 mi
3:30 pm102 °FHaze.21 mph48%29.42 "Hg3 mi
3:00 pm100 °FHaze.18 mph53%29.45 "Hg3 mi
2:30 pm100 °FHaze.18 mph57%29.45 "Hg3 mi
2:00 pm102 °FHaze.14 mph51%29.45 "Hg3 mi
1:30 pm104 °FHaze.9 mph40%29.45 "Hg3 mi
1:00 pm102 °FHaze.9 mph42%29.45 "Hg3 mi
12:30 pm100 °FHaze.5 mph50%29.47 "Hg3 mi
12:00 pm100 °FHaze.5 mph50%29.47 "Hg3 mi
11:30 am99 °FHaze.7 mph57%29.47 "Hg3 mi
11:00 am99 °FHaze.7 mph57%29.47 "Hg3 mi
10:30 am100 °FHaze.7 mph47%29.47 "Hg3 mi
10:00 am100 °FHaze.7 mph47%29.47 "Hg3 mi
9:30 am99 °FHaze.5 mph47%29.47 "Hg3 mi
9:00 am99 °FHaze.7 mph44%29.47 "Hg3 mi
8:30 am95 °FHaze.5 mph50%29.47 "Hg2 mi
8:00 am95 °FHaze.5 mph50%29.47 "Hg2 mi
7:30 am90 °FHaze.No wind63%29.45 "Hg2 mi
7:00 am86 °FHaze.5 mph66%29.45 "Hg2 mi
6:30 am86 °FHaze.7 mph66%29.42 "Hg2 mi
5:30 am88 °FHaze.5 mph62%29.42 "Hg2 mi
4:30 am86 °FHaze.5 mph66%29.42 "Hg2 mi
3:30 am90 °FHaze.5 mph59%29.42 "Hg2 mi
2:30 am90 °FHaze.5 mph59%29.42 "Hg2 mi
2:00 am90 °FHaze.5 mph59%29.42 "Hg2 mi
1:30 am90 °FHaze.5 mph59%29.42 "Hg2 mi
1:00 am90 °FHaze.5 mph59%29.42 "Hg2 mi
12:30 am91 °FHaze.5 mph56%29.42 "Hg2 mi
12:00 am93 °FHaze.5 mph53%29.42 "Hg2 mi
11:30 pm
Sun, Jun 25
95 °FHaze.7 mph53%29.42 "Hg2 mi
11:00 pm95 °FHaze.9 mph53%29.39 "Hg2 mi
10:30 pm95 °FHaze.9 mph53%29.39 "Hg2 mi
10:00 pm97 °FHaze.9 mph50%29.39 "Hg2 mi
9:30 pm97 °FHaze.14 mph47%29.39 "Hg2 mi
9:00 pm99 °FHaze.9 mph47%29.36 "Hg2 mi
8:30 pm99 °FHaze.9 mph47%29.36 "Hg2 mi
8:00 pm99 °FHaze.7 mph57%29.36 "Hg2 mi
7:30 pm99 °FHaze.7 mph57%29.36 "Hg2 mi
7:00 pm104 °FHaze.14 mph43%29.36 "Hg2 mi
6:30 pm104 °FHaze.14 mph43%29.36 "Hg2 mi
6:00 pm109 °FSandstorm.18 mph25%29.36 "Hg2 mi
Weather by CustomWeather, © 2017

See weather overviewHow to use our weather pages